Tracking 34223 objects as of 31-May-2026
HD Live streaming from Space Station
objects crossing your sky now

FORMOSAT7-2/COSMIC2-2

Track FORMOSAT7-2/COSMIC2-2 now!
10-day predictions


NORAD ID: 44351
Int'l Code: 2019-036N
Perigee: 584.6 km
Apogee: 585.6 km
Inclination: 24.0 °
Period: 96.2 minutes
Semi major axis: 6956 km
RCS: Unknown
Launch date: June 25, 2019
Source: Taiwan (Republic of China) (ROC)
Launch site: AIR FORCE EASTERN TEST RANGE (AFETR)
Your satellite tracking list
Your tracking list is empty




NASA's NSSDC Master Catalog

Two Line Element Set (TLE):
1 44351U 19036N   26150.68843706  .00003540  00000-0  27871-3 0  9992
2 44351  23.9991 266.7820 0000712  22.6911 337.3622 14.96422599380967
Source of the keplerian elements: AFSPC